2405 Weather Reports


Display with metric or nautical units.
time (UTC)temp
F
wind
direction
speed
MPH
gust
MPH
rain 1hr
in
rain 24hr
in
rain mn
in
humidity
%
barometer
mb
20260906114627 65 32 1.0 4.0 0.00 0.00 0.00 62 1017.4
20260906113114 65 0 1.0 4.0 0.00 0.00 0.00 61 1017.4
20260906111606 65 32 1.0 4.0 0.00 0.00 0.00 61 1017.4
20260906104602 65 27 1.0 4.0 0.00 0.01 0.00 61 1017.4
20260906103103 66 0 1.0 4.0 0.00 0.01 0.00 61 1017.4
20260906101604 66 37 1.0 3.0 0.00 0.01 0.00 61 1017.4
20260906100108 66 38 1.0 4.0 0.00 0.01 0.00 61 1017.4
20260906094604 66 35 1.0 4.0 0.00 0.01 0.00 61 1017.4
20260906093108 66 18 1.0 4.0 0.00 0.01 0.00 61 1017.4
20260906091616 66 0 2.0 5.0 0.00 0.01 0.00 60 1017.4
20260906090112 66 32 1.0 4.0 0.00 0.01 0.00 60 1017.4
20260906084604 66 17 1.0 4.0 0.00 0.01 0.00 60 1017.4
20260906083103 67 24 1.0 4.0 0.00 0.01 0.00 60 1017.4
20260906081602 67 0 1.0 3.0 0.00 0.01 0.00 60 1017.4
20260906080111 67 18 1.0 3.0 0.00 0.01 0.00 60 1017.4
20260906074606 67 346 0.0 3.0 0.00 0.01 0.00 60 1017.4
20260906073103 68 0 0.0 3.0 0.00 0.01 0.00 60 1017.4
20260906071614 68 342 1.0 4.0 0.00 0.01 0.00 60 1017.4
20260906070110 68 340 0.0 4.0 0.00 0.01 0.00 60 1017.4
20260906064603 69 5 1.0 4.0 0.00 0.01 0.00 60 1017.4
20260906063102 69 5 1.0 3.0 0.00 0.01 0.00 60 1017.4
20260906061608 69 5 1.0 4.0 0.00 0.01 0.00 60 1017.4
20260906060155 69 5 1.0 3.0 0.00 0.01 0.00 60 1017.4
20260906054616 70 5 1.0 4.0 0.00 0.01 0.00 60 1017.4
20260906053105 70 5 0.0 3.0 0.00 0.01 0.00 60 1017.4
20260906051605 70 5 1.0 3.0 0.00 0.01 0.00 60 1017.4
20260906050116 70 0 0.0 3.0 0.00 0.01 0.00 60 1017.4
20260906044602 70 0 1.0 5.0 0.00 0.01 0.01 60 1017.4
20260906043112 70 47 0.0 5.0 0.00 0.01 0.01 60 1017.4
20260906041602 70 0 1.0 5.0 0.00 0.01 0.01 60 1017.4
20260906040111 70 0 1.0 6.0 0.00 0.01 0.01 59 1017.4
20260906034606 70 0 2.0 8.0 0.00 0.01 0.01 59 1017.4
20260906033107 70 59 3.0 9.0 0.00 0.01 0.01 59 1017.4
20260906031630 70 46 1.0 9.0 0.00 0.01 0.01 59 1017.4
20260906030109 70 57 3.0 10.0 0.00 0.01 0.01 59 1017.4
20260906024608 70 44 3.0 8.0 0.00 0.09 0.01 59 1017.4
20260906023113 71 48 2.0 7.0 0.00 0.09 0.01 59 1017.4
20260906021607 71 20 1.0 5.0 0.00 0.09 0.01 59 1017.4
20260906020109 71 59 0.0 7.0 0.00 0.09 0.01 59 1017.4
20260906014606 71 44 1.0 7.0 0.00 0.09 0.01 59 1017.4
20260906013102 71 45 3.0 9.0 0.00 0.09 0.01 59 1017.4
20260906011612 71 0 3.0 9.0 0.00 0.09 0.01 59 1017.4
20260906010114 72 19 6.0 13.0 0.00 0.09 0.01 60 1017.4
20260906004603 72 71 4.0 13.0 0.00 0.09 0.01 60 1017.4
20260906003105 72 360 5.0 11.0 0.00 0.09 0.01 60 1017.4
20260906001615 72 67 5.0 11.0 0.00 0.09 0.01 60 1017.4
20260906000110 72 41 4.0 14.0 0.00 0.09 0.01 60 1017.4
20260905234607 73 66 5.0 14.0 0.00 0.09 0.01 60 1017.4
20260905233107 73 32 5.0 14.0 0.00 0.09 0.01 60 1017.4
20260905231619 74 9 6.0 15.0 0.00 0.09 0.01 60 1017.4
20260905230113 75 37 6.0 15.0 0.00 0.09 0.01 59 1017.4
20260905224604 77 46 4.0 15.0 0.00 0.09 0.01 58 1017.4
20260905223105 77 62 6.0 13.0 0.00 0.09 0.01 58 1017.4
20260905221631 79 45 5.0 15.0 0.00 0.09 0.01 55 1017.4
20260905220106 80 64 4.0 11.0 0.00 0.09 0.01 54 1017.4
20260905214609 79 65 5.0 16.0 0.00 0.09 0.01 55 1017.4
20260905213107 80 66 4.0 11.0 0.00 0.09 0.01 56 1017.4
20260905211605 80 68 3.0 14.0 0.00 0.09 0.01 56 1017.4
20260905210116 81 5 2.0 9.0 0.00 0.09 0.01 53 1017.4
20260905204607 82 11 7.0 12.0 0.00 0.09 0.01 51 1017.4
20260905203102 82 23 5.0 13.0 0.00 0.09 0.01 53 1017.4
20260905201610 81 15 3.0 15.0 0.00 0.09 0.01 54 1017.4
20260905200130 81 23 3.0 8.0 0.00 0.09 0.01 54 1017.4
20260905194606 79 78 4.0 10.0 0.00 0.09 0.01 54 1017.4
20260905193101 80 26 3.0 9.0 0.00 0.09 0.01 53 1017.4
20260905191607 77 59 1.0 5.0 0.00 0.09 0.01 55 1017.4
20260905190106 77 34 3.0 12.0 0.00 0.09 0.01 55 1017.4
20260905184609 77 78 2.0 10.0 0.00 0.09 0.01 55 1017.4
20260905183103 77 51 1.0 7.0 0.00 0.09 0.01 55 1017.4
20260905181609 77 59 2.0 9.0 0.00 0.09 0.01 55 1017.4
20260905180116 76 25 3.0 6.0 0.00 0.09 0.01 55 1017.4
20260905174603 76 39 3.0 12.0 0.00 0.09 0.01 55 1017.4
20260905173132 76 15 5.0 12.0 0.00 0.09 0.01 55 1017.4
20260905171606 76 61 4.0 11.0 0.00 0.09 0.01 55 1017.4
20260905170106 76 31 4.0 11.0 0.00 0.09 0.01 55 1017.4
20260905164615 76 86 3.0 11.0 0.00 0.09 0.01 56 1017.4
20260905163105 76 15 4.0 9.0 0.00 0.09 0.01 56 1017.4
20260905161608 75 34 3.0 11.0 0.00 0.09 0.01 57 1017.4
20260905160107 75 51 3.0 11.0 0.00 0.09 0.01 58 1017.4
20260905154606 75 15 3.0 10.0 0.00 0.09 0.01 59 1017.4
20260905153104 75 38 2.0 11.0 0.00 0.09 0.01 62 1017.4
20260905151609 75 32 4.0 12.0 0.00 0.09 0.01 65 1017.4
20260905150108 74 36 4.0 12.0 0.00 0.09 0.01 66 1017.4
20260905144605 75 0 4.0 10.0 0.00 0.09 0.01 67 1017.4
20260905143112 74 47 1.0 7.0 0.00 0.09 0.01 67 1017.4
20260905141609 73 51 2.0 8.0 0.00 0.09 0.01 67 1017.4
20260905140112 73 351 4.0 9.0 0.00 0.09 0.01 67 1017.4
20260905134609 73 0 1.0 9.0 0.00 0.09 0.01 67 1017.4
20260905133108 73 16 2.0 8.0 0.00 0.09 0.01 67 1017.4
20260905131608 73 30 1.0 8.0 0.00 0.09 0.01 66 1017.4
20260905130105 72 10 2.0 5.0 0.00 0.09 0.01 66 1017.4
20260905124604 72 11 2.0 8.0 0.00 0.09 0.01 66 1017.4
20260905123109 72 30 1.0 8.0 0.00 0.09 0.01 65 1017.4
20260905121605 72 17 2.0 8.0 0.00 0.09 0.01 65 1017.4
20260905120124 72 38 2.0 8.0 0.00 0.09 0.01 64 1017.4